Ogden, UT

3:40 PM MDT on September 19, 2019 (GMT -0600)
Ogden-Hinckley

Weather History for KOGD - August, 2019

Change the Weather History Date:

Sunday, August 25, 2019

  Actual Average Record
Temperature  
Mean Temperature 76 °F -  
Max Temperature 90 °F 88 °F 98 °F (1931)
Min Temperature 64 °F 55 °F 40 °F (1960)
Cooling Degree Days 12    
Growing Degree Days 26 (Base 50)    
Moisture  
Dew Point 35 °F    
Average Humidity 23    
Maximum Humidity 34    
Minimum Humidity 12    
Precipitation  
Precipitation 0.00 in - - ()
Sea Level Pressure  
Sea Level Pressure 29.82 in    
Wind  
Wind Speed 10 mph (SW)    
Max Wind Speed 16 mph    
Max Gust Speed 22 mph    
Visibility 10 miles    
Events      
Averages and records for this station are not official NWS values.
T = Trace of Precipitation, MM = Missing Value Source: NWS Daily Summary

Daily Weather History Graph

Daily Weather History Graph

Search for Another Location

Airport or City:

Astronomy

Aug. 25, 2019 Rise Set
Actual Time 6:47 AM MDT 8:12 PM MDT
Civil Twilight 6:18 AM MDT 8:40 PM MDT
Nautical Twilight 5:43 AM MDT 9:15 PM MDT
Astronomical Twilight 5:07 AM MDT 9:51 PM MDT
Moon 1:23 AM MDT (8/25) 4:39 PM MDT (8/25)
Length of Visible Light 14h 22m
Length of Day
13h 24m
Waning Crescent, 28% of the Moon is Illuminated
Aug 25
Waning Crescent
Aug 30
New
Sep 5
First Quarter
Sep 13
Full
Sep 21
Last Quarter

Hourly Weather History & Observations

Time (MDT) Temp. Dew Point Humidity Pressure Visibility Wind Dir Wind Speed Gust Speed Precip Events Conditions
12:53 AM 72.0 °F 33.1 °F 24% 29.76 in 10.0 mi South 12.7 mph - N/A   Clear
1:53 AM 66.0 °F 34.0 °F 30% 29.78 in 10.0 mi South 5.8 mph - N/A   Clear
2:53 AM 68.0 °F 34.0 °F 28% 29.78 in 10.0 mi SSE 10.4 mph - N/A   Clear
3:53 AM 66.9 °F 34.0 °F 30% 29.78 in 10.0 mi SSE 11.5 mph - N/A   Clear
4:53 AM 66.0 °F 34.0 °F 30% 29.80 in 10.0 mi South 10.4 mph - N/A   Clear
5:53 AM 64.0 °F 35.1 °F 34% 29.82 in 10.0 mi South 9.2 mph - N/A   Clear
6:53 AM 64.0 °F 35.1 °F 34% 29.84 in 10.0 mi South 12.7 mph - N/A   Clear
7:53 AM 66.0 °F 36.0 °F 33% 29.86 in 10.0 mi South 11.5 mph - N/A   Clear
8:53 AM 71.1 °F 37.9 °F 30% 29.88 in 10.0 mi SSE 8.1 mph - N/A   Clear
9:53 AM 79.0 °F 41.0 °F 26% 29.88 in 10.0 mi SSE 5.8 mph - N/A   Clear
10:53 AM 81.0 °F 39.0 °F 22% 29.89 in 10.0 mi West 6.9 mph - N/A   Clear
11:53 AM 82.0 °F 37.9 °F 21% 29.88 in 10.0 mi West 5.8 mph - N/A   Clear
12:53 PM 84.9 °F 39.9 °F 20% 29.86 in 10.0 mi Variable 6.9 mph - N/A   Clear
1:53 PM 87.1 °F 35.1 °F 16% 29.86 in 10.0 mi Variable 6.9 mph - N/A   Clear
2:53 PM 88.0 °F 32.0 °F 14% 29.84 in 10.0 mi WSW 11.5 mph - N/A   Clear
3:53 PM 88.0 °F 30.9 °F 13% 29.82 in 10.0 mi West 9.2 mph 18.4 mph N/A   Clear
4:53 PM 89.1 °F 30.9 °F 12% 29.80 in 10.0 mi Variable 4.6 mph - N/A   Clear
5:53 PM 89.1 °F 30.9 °F 12% 29.78 in 10.0 mi WSW 9.2 mph - N/A   Clear
6:53 PM 88.0 °F 32.0 °F 14% 29.76 in 10.0 mi SW 4.6 mph - N/A   Clear
7:53 PM 82.9 °F 37.0 °F 19% 29.77 in 10.0 mi WNW 3.5 mph - N/A   Clear
8:53 PM 79.0 °F 39.0 °F 24% 29.79 in 10.0 mi NNW 8.1 mph - N/A   Clear
9:53 PM 77.0 °F 39.0 °F 25% 29.81 in 10.0 mi NNW 12.7 mph - N/A   Clear
10:53 PM 75.0 °F 37.9 °F 26% 29.83 in 10.0 mi NW 11.5 mph - N/A   Clear
11:53 PM 73.9 °F 32.0 °F 21% 29.85 in 10.0 mi NNW 16.1 mph 21.9 mph N/A   Clear